EW3582 Weather Reports


Display with metric or nautical units.
time (UTC)temp
F
wind
direction
speed
MPH
gust
MPH
rain 1hr
in
rain 24hr
in
rain mn
in
humidity
%
barometer
mb
20191210014713 38 14 2.0 11.0 0.00 0.01 0.00 90 1012.5
20191210014215 38 31 1.0 9.0 0.00 0.01 0.00 90 1012.5
20191210013715 38 302 0.0 4.0 0.00 0.01 0.00 90 1012.4
20191210013236 38 324 1.0 6.0 0.00 0.01 0.00 90 1012.3
20191210012712 38 251 2.0 7.0 0.00 0.02 0.00 90 1012.2
20191210012215 38 160 3.0 9.0 0.00 0.02 0.00 90 1012.1
20191210011717 38 239 3.0 9.0 0.00 0.02 0.00 90 1012.0
20191210011211 38 244 3.0 9.0 0.00 0.02 0.00 90 1011.9
20191210010712 38 198 2.0 9.0 0.00 0.02 0.00 90 1011.8
20191210010211 38 332 1.0 5.0 0.00 0.02 0.00 90 1011.7
20191210005708 38 241 1.0 5.0 0.00 0.02 0.00 90 1011.6
20191210005208 38 265 1.0 5.0 0.00 0.02 0.00 90 1011.4
20191210004711 38 252 1.0 7.0 0.00 0.02 0.00 89 1011.3
20191210004204 38 266 2.0 7.0 0.00 0.03 0.00 89 1011.2
20191210003707 38 238 2.0 11.0 0.00 0.03 0.00 89 1011.1
20191210003206 38 231 2.0 11.0 0.00 0.03 0.00 89 1010.8
20191210002704 38 254 2.0 10.0 0.00 0.03 0.00 89 1010.8
20191210002204 38 237 2.0 8.0 0.00 0.03 0.00 89 1010.8
20191210001706 38 219 3.0 11.0 0.00 0.03 0.00 89 1010.6
20191210001159 38 244 2.0 11.0 0.00 0.03 0.00 89 1010.5
20191210000700 38 244 2.0 9.0 0.00 0.03 0.00 89 1010.5
20191210000200 38 262 2.0 7.0 0.00 0.03 0.00 89 1010.4
20191209235700 38 232 2.0 9.0 0.00 0.03 0.00 89 1010.3
20191209235200 38 244 1.0 9.0 0.00 0.03 0.00 89 1010.2
20191209234701 38 252 1.0 9.0 0.00 0.03 0.00 90 1010.1
20191209234204 38 287 2.0 7.0 0.00 0.03 0.00 90 1010.0
20191209233659 38 226 2.0 7.0 0.00 0.03 0.00 90 1009.9
20191209233156 38 259 2.0 7.0 0.00 0.03 0.00 90 1009.8
20191209232658 38 244 2.0 5.0 0.00 0.03 0.00 90 1009.8
20191209232154 38 345 2.0 7.0 0.00 0.03 0.00 90 1009.7
20191209231654 38 250 2.0 8.0 0.00 0.03 0.00 90 1009.7
20191209231154 38 230 3.0 9.0 0.00 0.03 0.00 90 1009.6
20191209230652 38 244 2.0 11.0 0.00 0.03 0.00 90 1009.6
20191209230149 38 252 2.0 11.0 0.00 0.03 0.00 90 1009.5
20191209225654 38 241 3.0 11.0 0.00 0.03 0.03 90 1009.4
20191209225145 38 231 2.0 11.0 0.00 0.03 0.03 91 1009.2
20191209224644 38 261 2.0 9.0 0.00 0.04 0.03 91 1009.1
20191209224142 38 235 2.0 8.0 0.00 0.04 0.03 91 1009.1
20191209223643 38 259 2.0 6.0 0.00 0.05 0.03 91 1008.9
20191209223145 38 234 2.0 6.0 0.00 0.05 0.03 91 1008.8
20191209222644 38 278 2.0 8.0 0.00 0.05 0.03 91 1008.7
20191209222139 38 231 3.0 8.0 0.00 0.05 0.03 91 1008.6
20191209221637 38 237 3.0 10.0 0.00 0.05 0.03 91 1008.5
20191209221139 38 224 4.0 12.0 0.00 0.05 0.03 91 1008.3
20191209220636 38 252 3.0 12.0 0.00 0.05 0.03 91 1008.3
20191209220136 38 255 2.0 8.0 0.00 0.06 0.03 91 1008.1
20191209215638 38 256 2.0 7.0 0.00 0.06 0.03 91 1008.0
20191209215136 38 221 1.0 7.0 0.00 0.07 0.03 91 1007.8
20191209214636 38 171 2.0 8.0 0.00 0.07 0.03 91 1007.7
20191209214130 38 226 3.0 8.0 0.00 0.07 0.03 90 1007.7
20191209213631 38 274 2.0 6.0 0.00 0.07 0.03 90 1007.6
20191209213130 38 230 2.0 6.0 0.00 0.08 0.03 90 1007.6
20191209212635 39 221 1.0 8.0 0.00 0.08 0.03 90 1007.4
20191209212124 39 273 1.0 8.0 0.00 0.08 0.03 90 1007.4
20191209211625 39 296 1.0 6.0 0.00 0.08 0.03 90 1007.3
20191209211120 39 311 1.0 8.0 0.00 0.08 0.03 90 1007.2
20191209210619 39 278 1.0 8.0 0.00 0.08 0.03 90 1007.2
20191209210123 38 242 1.0 5.0 0.00 0.08 0.03 90 1007.1
20191209205616 38 265 1.0 3.0 0.00 0.08 0.03 90 1007.0
20191209205117 38 226 1.0 4.0 0.00 0.08 0.03 90 1006.9
20191209204612 38 220 1.0 4.0 0.00 0.08 0.03 89 1006.9
20191209204115 39 246 1.0 4.0 0.00 0.08 0.03 89 1006.7
20191209203615 39 252 1.0 4.0 0.01 0.08 0.03 89 1006.7
20191209203114 39 297 1.0 3.0 0.01 0.08 0.03 89 1006.6
20191209202606 39 237 0.0 4.0 0.01 0.08 0.03 89 1006.6
20191209202104 39 299 1.0 4.0 0.01 0.08 0.03 89 1006.6
20191209201605 39 264 1.0 7.0 0.01 0.08 0.03 89 1006.5
20191209201104 39 247 1.0 7.0 0.01 0.08 0.03 88 1006.3
20191209200603 39 235 2.0 7.0 0.01 0.08 0.03 88 1006.2
20191209194052 40 247 2.0 11.0 0.01 0.08 0.03 87 1006.0
20191209193554 40 240 3.0 11.0 0.00 0.07 0.02 86 1005.9
20191209193050 41 204 4.0 15.0 0.00 0.07 0.02 84 1005.6
20191209192550 41 219 2.0 15.0 0.00 0.07 0.02 84 1005.5
20191209192050 41 226 1.0 7.0 0.00 0.07 0.02 83 1005.3
20191209191550 41 324 2.0 9.0 0.00 0.07 0.02 83 1005.3
20191209191053 41 247 2.0 9.0 0.00 0.07 0.02 83 1005.3
20191209190551 41 253 2.0 8.0 0.00 0.07 0.02 82 1005.2
20191209190052 41 20 3.0 12.0 0.00 0.07 0.02 82 1005.0
20191209185544 41 318 3.0 12.0 0.00 0.07 0.02 81 1004.9
20191209185044 42 243 2.0 12.0 0.00 0.07 0.02 80 1004.8
20191209184547 42 212 2.0 10.0 0.00 0.07 0.02 80 1004.8
20191209184045 42 333 3.0 10.0 0.00 0.07 0.02 80 1004.7
20191209183541 42 224 3.0 10.0 0.00 0.07 0.02 79 1004.7
20191209183042 42 263 2.0 8.0 0.00 0.07 0.02 79 1004.7
20191209182542 42 314 3.0 9.0 0.00 0.07 0.02 79 1004.7
20191209182040 42 56 4.0 11.0 0.00 0.07 0.02 79 1004.7
20191209181539 42 232 4.0 11.0 0.00 0.07 0.02 78 1004.6
20191209181042 42 226 3.0 10.0 0.00 0.07 0.02 78 1004.5
20191209180545 42 222 3.0 13.0 0.00 0.07 0.02 78 1004.5
20191209180043 42 276 4.0 13.0 0.00 0.07 0.02 77 1004.4
20191209175540 42 64 4.0 16.0 0.00 0.07 0.02 77 1004.3
20191209175041 43 243 4.0 16.0 0.00 0.07 0.02 76 1004.2
20191209174536 43 223 3.0 12.0 0.00 0.07 0.02 76 1004.2
20191209174036 42 248 2.0 12.0 0.00 0.07 0.02 75 1004.1
20191209173539 43 232 2.0 12.0 0.00 0.07 0.02 75 1003.9
20191209173032 43 165 3.0 12.0 0.00 0.07 0.02 74 1003.8
20191209172534 43 332 2.0 10.0 0.00 0.07 0.02 74 1003.7
20191209172032 43 181 2.0 10.0 0.00 0.07 0.02 74 1003.6
20191209171532 43 250 2.0 10.0 0.00 0.07 0.02 74 1003.6
20191209171032 43 258 1.0 9.0 0.00 0.07 0.02 74 1003.6
20191209170534 43 206 2.0 9.0 0.00 0.07 0.02 74 1003.5
20191209170033 43 251 1.0 8.0 0.00 0.07 0.02 74 1003.4
20191209165528 42 216 2.0 9.0 0.00 0.07 0.02 74 1003.3
20191209165027 42 229 2.0 9.0 0.00 0.07 0.02 75 1003.3
20191209164528 42 228 2.0 9.0 0.00 0.07 0.02 75 1003.3
20191209164029 42 224 2.0 9.0 0.00 0.07 0.02 76 1003.2
20191209163531 42 224 3.0 11.0 0.00 0.07 0.02 76 1003.2
20191209163028 42 268 3.0 11.0 0.00 0.07 0.02 76 1003.1
20191209162528 42 212 3.0 10.0 0.00 0.07 0.02 76 1003.0
20191209162029 42 154 3.0 10.0 0.00 0.07 0.02 75 1002.8
20191209161529 42 210 3.0 10.0 0.00 0.07 0.02 75 1002.7
20191209161031 42 249 4.0 11.0 0.00 0.07 0.02 75 1002.7
20191209160524 42 14 5.0 11.0 0.00 0.07 0.02 75 1002.7
20191209160022 42 235 5.0 12.0 0.00 0.07 0.02 75 1002.8
20191209155524 42 236 5.0 12.0 0.00 0.07 0.02 75 1002.8
20191209155023 42 258 3.0 12.0 0.00 0.07 0.02 75 1002.8
20191209154522 42 239 3.0 12.0 0.00 0.07 0.02 74 1002.8
20191209154026 42 235 4.0 12.0 0.00 0.07 0.02 74 1002.8
20191209153520 42 223 3.0 19.0 0.00 0.07 0.02 74 1002.7
20191209153019 42 235 2.0 19.0 0.00 0.07 0.02 74 1002.7
20191209152521 42 184 1.0 8.0 0.00 0.07 0.02 74 1002.6
20191209152018 42 249 1.0 8.0 0.00 0.07 0.02 73 1002.6
20191209151515 42 253 1.0 9.0 0.00 0.07 0.02 73 1002.6
20191209151020 42 223 2.0 9.0 0.00 0.07 0.02 73 1002.5
20191209150514 42 239 2.0 7.0 0.00 0.07 0.02 73 1002.4
20191209150011 42 255 3.0 12.0 0.00 0.07 0.02 73 1002.4
20191209145514 42 252 2.0 12.0 0.00 0.07 0.02 73 1002.4
20191209145012 42 234 2.0 8.0 0.00 0.07 0.02 73 1002.4
20191209144512 43 212 3.0 10.0 0.00 0.07 0.02 73 1002.4
20191209144011 43 194 4.0 12.0 0.00 0.07 0.02 73 1002.4
20191209143506 43 256 4.0 12.0 0.00 0.07 0.02 72 1002.4
20191209143004 44 162 3.0 10.0 0.00 0.07 0.02 72 1002.4
20191209142506 44 235 3.0 12.0 0.00 0.07 0.02 72 1002.3
20191209142004 44 216 4.0 12.0 0.00 0.07 0.02 71 1002.4
20191209141503 44 219 4.0 11.0 0.00 0.07 0.02 72 1002.3
20191209141006 44 193 4.0 11.0 0.00 0.07 0.02 71 1002.4
20191209140500 44 341 2.0 9.0 0.00 0.07 0.02 71 1002.5
20191209140000 44 237 2.0 9.0 0.00 0.07 0.02 72 1002.5
20191209135458 44 228 3.0 10.0 0.00 0.07 0.02 71 1002.4
20191209134958 44 228 4.0 11.0 0.00 0.07 0.02 71 1002.4
20191209134459 45 251 4.0 11.0 0.00 0.07 0.02 70 1002.3
20191209134002 45 322 3.0 10.0 0.00 0.07 0.02 70 1002.3
20191209133454 45 221 3.0 11.0 0.00 0.07 0.02 71 1002.4
20191209132952 44 210 3.0 11.0 0.00 0.07 0.02 71 1002.3
20191209132452 44 214 2.0 17.0 0.00 0.07 0.02 72 1002.1
20191209131952 44 224 2.0 17.0 0.00 0.07 0.02 71 1002.4
20191209131454 44 187 3.0 10.0 0.00 0.07 0.02 71 1002.4
20191209130953 44 247 3.0 10.0 0.00 0.07 0.02 70 1002.4
20191209130452 44 235 3.0 9.0 0.00 0.07 0.02 71 1002.4
20191209125949 44 207 2.0 9.0 0.00 0.07 0.02 70 1002.5
20191209125454 45 264 2.0 7.0 0.00 0.07 0.02 70 1002.5
20191209124947 45 237 2.0 8.0 0.00 0.07 0.02 70 1002.6
20191209124446 45 211 2.0 10.0 0.00 0.07 0.02 70 1002.7
20191209123947 45 237 3.0 12.0 0.00 0.07 0.02 70 1002.6
20191209123442 45 228 3.0 12.0 0.00 0.07 0.02 71 1002.6
20191209122942 45 285 2.0 10.0 0.00 0.07 0.02 71 1002.5
20191209122439 44 269 1.0 10.0 0.00 0.07 0.02 73 1002.6
20191209121940 44 208 3.0 13.0 0.00 0.07 0.02 73 1002.5
20191209121439 44 208 3.0 13.0 0.00 0.07 0.02 73 1002.6
20191209120941 44 228 3.0 10.0 0.00 0.07 0.02 73 1002.5
20191209120440 44 254 2.0 10.0 0.00 0.07 0.02 73 1002.7
20191209115935 44 204 2.0 9.0 0.00 0.07 0.02 73 1002.6
20191209115435 44 166 3.0 10.0 0.00 0.07 0.02 74 1002.6
20191209114935 44 225 3.0 10.0 0.00 0.07 0.02 73 1002.6
20191209114436 44 253 2.0 9.0 0.00 0.07 0.02 73 1002.7
20191209113935 44 166 2.0 12.0 0.00 0.07 0.02 73 1002.8
20191209113430 44 245 4.0 12.0 0.00 0.07 0.02 73 1002.8
20191209112930 44 226 4.0 16.0 0.00 0.07 0.02 73 1003.0
20191209112440 44 252 4.0 16.0 0.00 0.07 0.02 72 1002.9
20191209111929 44 204 2.0 10.0 0.00 0.07 0.02 72 1002.9
20191209111427 44 233 2.0 9.0 0.00 0.07 0.02 73 1002.9
20191209110927 44 274 3.0 11.0 0.00 0.07 0.02 73 1002.9
20191209110423 44 280 3.0 11.0 0.00 0.07 0.02 73 1003.0
20191209105924 44 179 2.0 6.0 0.00 0.07 0.02 74 1003.2
20191209105421 43 233 3.0 14.0 0.00 0.07 0.02 74 1003.0
20191209104921 43 4 4.0 17.0 0.00 0.07 0.02 74 1003.1
20191209104421 43 232 3.0 17.0 0.00 0.07 0.02 75 1003.1
20191209103926 43 145 3.0 10.0 0.00 0.07 0.02 74 1003.1
20191209103419 43 4 3.0 10.0 0.00 0.07 0.02 74 1003.1
20191209102919 43 152 2.0 9.0 0.00 0.07 0.02 75 1003.3
20191209102422 43 310 3.0 12.0 0.00 0.07 0.02 74 1003.2
20191209101917 43 246 3.0 12.0 0.00 0.07 0.02 74 1003.1
20191209101418 43 185 3.0 11.0 0.00 0.07 0.02 74 1003.1
20191209100918 43 235 2.0 11.0 0.00 0.07 0.02 74 1003.2
20191209100409 43 212 2.0 9.0 0.00 0.07 0.02 75 1003.3
20191209095909 43 268 3.0 10.0 0.00 0.07 0.02 75 1003.3
20191209095412 43 238 3.0 17.0 0.00 0.07 0.02 75 1003.3
20191209094910 43 81 2.0 17.0 0.00 0.07 0.02 75 1003.4
20191209094410 43 264 2.0 14.0 0.00 0.07 0.02 76 1003.4
20191209093911 42 233 3.0 9.0 0.00 0.07 0.02 76 1003.4
20191209093403 42 293 3.0 9.0 0.00 0.07 0.02 77 1003.4
20191209092904 42 239 2.0 9.0 0.00 0.07 0.02 78 1003.5
20191209092405 42 232 2.0 7.0 0.00 0.07 0.02 78 1003.5
20191209091903 42 176 2.0 8.0 0.00 0.07 0.02 79 1003.5
20191209091401 42 239 3.0 10.0 0.00 0.07 0.02 80 1003.6
20191209090906 42 171 3.0 10.0 0.00 0.07 0.02 80 1003.6
20191209090355 42 140 4.0 11.0 0.00 0.07 0.02 80 1003.7
20191209085855 42 243 4.0 13.0 0.00 0.07 0.02 80 1003.7
20191209085355 42 216 2.0 13.0 0.00 0.07 0.02 81 1003.7
20191209084857 42 225 3.0 12.0 0.00 0.07 0.02 81 1003.7
20191209084357 42 195 5.0 12.0 0.00 0.07 0.02 81 1003.7
20191209083857 42 264 4.0 12.0 0.00 0.07 0.02 81 1003.6
20191209083355 42 354 3.0 12.0 0.00 0.07 0.02 81 1003.5
20191209082855 42 235 2.0 10.0 0.00 0.07 0.02 81 1003.5
20191209082357 42 245 3.0 9.0 0.00 0.07 0.02 80 1003.4
20191209081853 42 233 4.0 11.0 0.00 0.07 0.02 80 1003.4
20191209081353 42 242 4.0 11.0 0.00 0.07 0.02 80 1003.3
20191209080855 42 243 4.0 14.0 0.00 0.07 0.02 80 1003.3
20191209080353 43 260 5.0 14.0 0.00 0.07 0.02 80 1003.4
20191209075853 43 278 6.0 14.0 0.00 0.07 0.02 78 1003.2
20191209075356 43 180 4.0 14.0 0.00 0.07 0.02 78 1003.1
20191209074849 43 218 4.0 22.0 0.00 0.07 0.02 79 1003.3
20191209074349 43 36 5.0 22.0 0.00 0.07 0.02 79 1003.2
20191209073852 43 168 4.0 14.0 0.00 0.07 0.02 78 1003.3
20191209073348 42 287 4.0 14.0 0.00 0.07 0.02 78 1003.3
20191209072849 42 231 4.0 15.0 0.00 0.07 0.02 78 1003.2
20191209072357 42 230 5.0 15.0 0.00 0.07 0.02 78 1003.2
20191209071845 42 167 6.0 16.0 0.00 0.07 0.02 78 1003.3
20191209071346 42 215 5.0 16.0 0.00 0.07 0.02 78 1003.2
20191209070845 42 295 5.0 14.0 0.00 0.07 0.02 78 1003.1
20191209070344 42 220 5.0 18.0 0.00 0.07 0.02 79 1003.1
20191209065845 42 251 4.0 18.0 0.00 0.07 0.02 79 1003.1
20191209065348 42 231 3.0 11.0 0.00 0.07 0.02 79 1003.0
20191209064843 42 209 3.0 11.0 0.00 0.07 0.02 80 1003.2
20191209064343 41 328 3.0 10.0 0.00 0.07 0.02 80 1003.2
20191209063845 41 158 2.0 8.0 0.00 0.07 0.02 80 1003.2
20191209063343 41 220 3.0 9.0 0.00 0.07 0.02 80 1003.1
20191209062843 41 252 3.0 9.0 0.00 0.07 0.02 80 1003.0
20191209062344 41 115 3.0 8.0 0.00 0.07 0.02 81 1003.0
20191209061839 41 226 3.0 8.0 0.00 0.07 0.02 81 1003.1
20191209061339 41 190 3.0 10.0 0.00 0.07 0.02 82 1002.9
20191209060837 41 239 2.0 10.0 0.00 0.07 0.02 82 1002.9
20191209060337 41 231 2.0 8.0 0.00 0.07 0.02 83 1002.9
20191209055838 41 267 3.0 7.0 0.00 0.07 0.02 83 1003.0
20191209055340 41 235 2.0 12.0 0.00 0.07 0.02 84 1003.0
20191209054833 40 255 2.0 12.0 0.00 0.07 0.02 84 1003.2
20191209054331 41 343 2.0 9.0 0.00 0.07 0.02 84 1003.2
20191209053831 41 359 3.0 9.0 0.00 0.07 0.02 84 1003.1
20191209053331 41 228 4.0 11.0 0.00 0.07 0.02 84 1003.2
20191209052831 41 233 4.0 16.0 0.00 0.07 0.02 84 1003.2
20191209052332 41 256 4.0 16.0 0.00 0.07 0.02 84 1003.1
20191209051825 41 238 3.0 12.0 0.00 0.07 0.02 84 1003.0
20191209051327 41 272 3.0 12.0 0.00 0.07 0.02 84 1003.1
20191209050827 41 218 3.0 13.0 0.00 0.07 0.02 84 1003.2
20191209050325 41 265 2.0 13.0 0.00 0.07 0.02 84 1003.1
20191209045825 41 225 3.0 10.0 0.00 0.07 0.02 84 1003.2
20191209045326 41 176 3.0 11.0 0.00 0.07 0.02 84 1003.1
20191209044818 41 343 2.0 11.0 0.00 0.07 0.02 84 1002.9
20191209044320 41 269 3.0 13.0 0.00 0.07 0.02 83 1003.0
20191209043818 41 229 4.0 13.0 0.00 0.07 0.02 83 1003.1
20191209043319 42 287 5.0 14.0 0.00 0.07 0.02 83 1003.2
20191209042820 42 283 5.0 16.0 0.00 0.07 0.02 83 1003.2
20191209042323 42 249 5.0 16.0 0.00 0.07 0.02 83 1003.1
20191209041816 42 200 3.0 12.0 0.00 0.07 0.02 83 1003.1
20191209041313 42 322 3.0 10.0 0.00 0.07 0.02 83 1003.3
20191209040812 42 235 4.0 11.0 0.00 0.07 0.02 82 1003.3
20191209040313 42 252 3.0 11.0 0.00 0.07 0.02 82 1003.4
20191209035814 42 247 3.0 14.0 0.00 0.07 0.02 82 1003.4
20191209035314 42 237 4.0 17.0 0.00 0.07 0.02 82 1003.4
20191209034806 42 223 4.0 17.0 0.00 0.07 0.02 82 1003.6
20191209034307 42 270 3.0 11.0 0.00 0.07 0.02 81 1003.5
20191209033809 42 278 4.0 12.0 0.00 0.07 0.02 81 1003.5
20191209033307 42 16 3.0 12.0 0.00 0.07 0.02 81 1003.4
20191209032807 42 256 2.0 14.0 0.00 0.07 0.02 81 1003.3
20191209032309 43 273 3.0 14.0 0.00 0.07 0.02 81 1003.4
20191209031807 43 207 3.0 11.0 0.00 0.07 0.02 80 1003.3
20191209031302 43 251 3.0 11.0 0.00 0.07 0.02 80 1003.3
20191209030805 43 247 3.0 11.0 0.00 0.07 0.02 80 1003.1
20191209030303 43 194 3.0 11.0 0.00 0.07 0.02 80 1003.2
20191209025801 43 238 4.0 14.0 0.00 0.07 0.02 80 1003.0
20191209025305 43 170 4.0 14.0 0.00 0.07 0.02 79 1003.1
20191209024757 43 154 4.0 15.0 0.00 0.07 0.02 79 1003.0
20191209024256 43 295 4.0 15.0 0.00 0.07 0.02 80 1003.2
20191209023754 43 255 5.0 11.0 0.00 0.07 0.02 80 1003.0
20191209023255 43 243 4.0 10.0 0.00 0.07 0.02 81 1003.3
20191209022756 43 218 3.0 10.0 0.01 0.07 0.02 83 1003.0
20191209022256 43 226 4.0 14.0 0.01 0.07 0.02 84 1003.1
20191209021252 43 228 4.0 17.0 0.01 0.07 0.02 86 1003.1
20191209020756 43 204 4.0 17.0 0.02 0.07 0.02 87 1003.2
20191209020251 43 247 5.0 17.0 0.02 0.07 0.02 88 1003.1
20191209015748 43 264 5.0 17.0 0.02 0.07 0.02 89 1003.1
20191209015250 43 204 4.0 17.0 0.02 0.07 0.02 91 1003.3